Weather History for PAMR - November, 2011

Change the Weather History Date:

Wednesday, November 2, 2011

  Actual Average Record
Temperature  
Mean Temperature 26 °F -  
Max Temperature 34 °F 31 °F 44 °F (2002)
Min Temperature 17 °F 21 °F 3 °F (1999)
Degree Days  
Heating Degree Days 38    
Moisture  
Dew Point 5 °F    
Average Humidity 37    
Maximum Humidity 62    
Minimum Humidity 28    
Precipitation  
Precipitation 0.00 in - - ()
Snow  
Snow 0.00 in - - ()
Snow Depth 2.00 in    
Sea Level Pressure  
Sea Level Pressure 30.03 in    
Wind  
Wind Speed 14 mph (NW)    
Max Wind Speed 20 mph    
Max Gust Speed 29 mph    
Visibility 10 miles    
Events      
Averages and records for this station are not official NWS values.
T = Trace of Precipitation, MM = Missing Value Source: NWS Daily Summary

Daily Weather History Graph

Daily Weather History Graph

Search for Another Location

Airport or City:

Trip Planner

Search our weather history database for the weather conditions in past years. The results will help you decide how hot, cold, wet, or windy it might be!

Date:

Astronomy

Nov. 02, 2011 Rise Set
Actual Time 9:29 AM AKDT 5:55 PM AKDT
Civil Twilight 8:42 AM AKDT 6:42 PM AKDT
Nautical Twilight 7:50 AM AKDT 7:34 PM AKDT
Astronomical Twilight 7:00 AM AKDT 8:24 PM AKDT
Moon 3:48 PM AKDT (11/2) No Moon Set
Length of Visible Light 10h 00m
Length of Day
8h 25m
First Quarter, 51% of the Moon is Illuminated
Nov 2
First Quarter
Nov 10
Full
Nov 18
Last Quarter
Nov 24
New
Dec 2
First Quarter

Hourly Weather History & Observations

Time (AKDT) Temp. Windchill Dew Point Humidity Pressure Visibility Wind Dir Wind Speed Gust Speed Precip Events Conditions
12:53 AM 30.9 °F 18.7 °F 7.0 °F 37% 29.65 in 10.0 mi NNW 19.6 mph 26.5 mph N/A   Overcast
1:53 AM 32.0 °F 20.5 °F 6.1 °F 34% 29.71 in 10.0 mi NNW 18.4 mph 25.3 mph N/A   Overcast
2:53 AM 30.9 °F 20.2 °F 5.0 °F 33% 29.76 in 10.0 mi NW 15.0 mph 25.3 mph N/A   Overcast
3:53 AM 30.0 °F 19.5 °F 5.0 °F 35% 29.80 in 10.0 mi NW 13.8 mph 18.4 mph N/A   Mostly Cloudy
4:53 AM 30.0 °F 19.1 °F 3.9 °F 33% 29.83 in 10.0 mi WNW 15.0 mph 21.9 mph N/A   Overcast
5:53 AM 30.0 °F 19.5 °F 3.9 °F 33% 29.87 in 10.0 mi NW 13.8 mph 23.0 mph N/A   Overcast
6:53 AM 28.9 °F - 3.9 °F 35% 29.90 in 10.0 mi North - - N/A   Scattered Clouds
7:53 AM 28.9 °F 16.1 °F 3.9 °F 35% 29.94 in 10.0 mi NNW 19.6 mph 28.8 mph N/A   Clear
8:53 AM 28.9 °F 16.5 °F 3.0 °F 33% 29.99 in 10.0 mi NW 18.4 mph - N/A   Clear
9:53 AM 28.0 °F 17.0 °F 3.0 °F 34% 30.03 in 10.0 mi NW 13.8 mph 27.6 mph N/A   Clear
10:53 AM 30.0 °F - 3.0 °F 32% 30.06 in 10.0 mi North - - N/A   Clear
11:53 AM 30.9 °F - 5.0 °F 33% 30.09 in 10.0 mi North - - N/A   Clear
12:53 PM 32.0 °F - 3.9 °F 31% 30.12 in 10.0 mi North - - N/A   Clear
1:53 PM 33.1 °F 22.2 °F 6.1 °F 32% 30.13 in 10.0 mi NW 17.3 mph 27.6 mph N/A   Clear
2:53 PM 34.0 °F - 3.9 °F 28% 30.14 in 10.0 mi North - - N/A   Clear
3:53 PM 34.0 °F 24.2 °F 6.1 °F 31% 30.16 in 10.0 mi NNW 15.0 mph 25.3 mph N/A   Clear
4:53 PM 34.0 °F 25.5 °F 3.9 °F 28% 30.17 in 10.0 mi NNW 11.5 mph 25.3 mph N/A   Clear
5:53 PM 33.1 °F - 5.0 °F 31% 30.17 in 10.0 mi North - - N/A   Clear
6:53 PM 32.0 °F 25.6 °F 5.0 °F 32% 30.19 in 10.0 mi NNW 6.9 mph 16.1 mph N/A   Clear
7:53 PM 30.9 °F 23.5 °F 6.1 °F 35% 30.20 in 10.0 mi WNW 8.1 mph - N/A   Clear
8:53 PM 28.0 °F - 7.0 °F 41% 30.23 in 10.0 mi Calm Calm - N/A   Clear
9:53 PM 19.0 °F 12.3 °F 7.0 °F 59% 30.22 in 10.0 mi ENE 4.6 mph - N/A   Scattered Clouds
10:53 PM 19.0 °F - 7.0 °F 59% 30.22 in 10.0 mi Calm Calm - N/A   Scattered Clouds
11:53 PM 17.1 °F - 6.1 °F 62% 30.21 in 10.0 mi Calm Calm - N/A   Scattered Clouds